Location: Newark
(25.0000°N, 73.5000°E)
Time: 14:02:03
(UTC+00:00)

RS-15 - Pass Details

Date: 21 February 2020
Orbit: 1898 x 2146 km, 64.8° (Epoch: 08 April)

Event Time Altitude Azimuth Distance (km) Brightness Sun altitude
Rises 23:05:35 0° 345° (NNW) 5,323 10.2 -34.7°
Reaches altitude 10° 23:09:45 10° 358° (N) 4,351 9.8 -33.7°
Maximum altitude 23:18:42 27° 52° (NE) 3,275 9.6 -31.7°
Drops below altitude 10° 23:27:51 10° 106° (ESE) 4,501 10.8 -29.6°
Sets 23:32:10 0° 118° (ESE) 5,538 11.3 -28.7°
